owner,sensor,date,latitude,longitude,vertical_datum,mass_concentration_of_oxygen_in_sea_water,qcFlag 
NERRS,ioos:station:NOAA.NERRS:rkblhwq:1,2017-07-01T00:45:00Z,26.0257,-81.7332,1.33,5.3,1111122 
NERRS,ioos:station:NOAA.NERRS:rkblhwq:1,2017-07-01T01:45:00Z,26.0257,-81.7332,1.25,6.2,1111122 
NERRS,ioos:station:NOAA.NERRS:rkblhwq:1,2017-07-01T02:45:00Z,26.0257,-81.7332,1.16,6.0,1111122 
NERRS,ioos:station:NOAA.NERRS:rkblhwq:1,2017-07-01T03:45:00Z,26.0257,-81.7332,1.04,5.9,1111122 
NERRS,ioos:station:NOAA.NERRS:rkblhwq:1,2017-07-01T04:45:00Z,26.0257,-81.7332,0.94,5.2,1111122 
NERRS,ioos:station:NOAA.NERRS:rkblhwq:1,2017-07-01T05:45:00Z,26.0257,-81.7332,0.86,5.1,1111122 
NERRS,ioos:station:NOAA.NERRS:rkblhwq:1,2017-07-01T06:45:00Z,26.0257,-81.7332,0.84,2.6,1111122 
NERRS,ioos:station:NOAA.NERRS:rkblhwq:1,2017-07-01T07:45:00Z,26.0257,-81.7332,0.93,4.5,1111122 
NERRS,ioos:station:NOAA.NERRS:rkblhwq:1,2017-07-01T08:45:00Z,26.0257,-81.7332,1.06,4.8,1111122 
NERRS,ioos:station:NOAA.NERRS:rkblhwq:1,2017-07-01T09:45:00Z,26.0257,-81.7332,1.2,4.5,1111122 
NERRS,ioos:station:NOAA.NERRS:rkblhwq:1,2017-07-01T10:45:00Z,26.0257,-81.7332,1.32,4.4,1111122 
NERRS,ioos:station:NOAA.NERRS:rkblhwq:1,2017-07-01T11:45:00Z,26.0257,-81.7332,1.42,3.6,1111122 
NERRS,ioos:station:NOAA.NERRS:rkblhwq:1,2017-07-01T12:45:00Z,26.0257,-81.7332,1.46,2.2,1111122 
NERRS,ioos:station:NOAA.NERRS:rkblhwq:1,2017-07-01T13:45:00Z,26.0257,-81.7332,1.4,4.0,1111122 
NERRS,ioos:station:NOAA.NERRS:rkblhwq:1,2017-07-01T14:45:00Z,26.0257,-81.7332,1.3,4.3,1111122 
NERRS,ioos:station:NOAA.NERRS:rkblhwq:1,2017-07-01T15:45:00Z,26.0257,-81.7332,1.2,4.8,1111122 
NERRS,ioos:station:NOAA.NERRS:rkblhwq:1,2017-07-01T16:45:00Z,26.0257,-81.7332,1.09,5.1,1111122 
NERRS,ioos:station:NOAA.NERRS:rkblhwq:1,2017-07-01T17:45:00Z,26.0257,-81.7332,0.99,5.7,1111122 
NERRS,ioos:station:NOAA.NERRS:rkblhwq:1,2017-07-01T18:45:00Z,26.0257,-81.7332,0.9,6.4,1111122 
NERRS,ioos:station:NOAA.NERRS:rkblhwq:1,2017-07-01T19:45:00Z,26.0257,-81.7332,0.9,4.1,1111122 
NERRS,ioos:station:NOAA.NERRS:rkblhwq:1,2017-07-01T20:45:00Z,26.0257,-81.7332,0.97,6.9,1111122 
NERRS,ioos:station:NOAA.NERRS:rkblhwq:1,2017-07-01T21:45:00Z,26.0257,-81.7332,1.07,7.4,1111122 
NERRS,ioos:station:NOAA.NERRS:rkblhwq:1,2017-07-01T22:45:00Z,26.0257,-81.7332,1.16,6.8,1111122 
NERRS,ioos:station:NOAA.NERRS:rkblhwq:1,2017-07-01T23:45:00Z,26.0257,-81.7332,1.24,5.4,1111122 
NERRS,ioos:station:NOAA.NERRS:rkblhwq:1,2017-07-02T00:45:00Z,26.0257,-81.7332,1.29,5.2,1111122 
NERRS,ioos:station:NOAA.NERRS:rkblhwq:1,2017-07-02T01:45:00Z,26.0257,-81.7332,1.27,2.4,1111122 
NERRS,ioos:station:NOAA.NERRS:rkblhwq:1,2017-07-02T02:45:00Z,26.0257,-81.7332,1.19,6.4,1111122 
NERRS,ioos:station:NOAA.NERRS:rkblhwq:1,2017-07-02T03:45:00Z,26.0257,-81.7332,1.11,5.8,1111122 
NERRS,ioos:station:NOAA.NERRS:rkblhwq:1,2017-07-02T04:45:00Z,26.0257,-81.7332,1.03,5.6,1111122 
NERRS,ioos:station:NOAA.NERRS:rkblhwq:1,2017-07-02T05:45:00Z,26.0257,-81.7332,0.96,4.7,1111122 
NERRS,ioos:station:NOAA.NERRS:rkblhwq:1,2017-07-02T06:45:00Z,26.0257,-81.7332,0.92,3.5,1111122 
NERRS,ioos:station:NOAA.NERRS:rkblhwq:1,2017-07-02T07:45:00Z,26.0257,-81.7332,0.92,4.4,1111122 
NERRS,ioos:station:NOAA.NERRS:rkblhwq:1,2017-07-02T08:45:00Z,26.0257,-81.7332,1.01,4.6,1111122 
NERRS,ioos:station:NOAA.NERRS:rkblhwq:1,2017-07-02T09:45:00Z,26.0257,-81.7332,1.13,4.9,1111122 
NERRS,ioos:station:NOAA.NERRS:rkblhwq:1,2017-07-02T10:45:00Z,26.0257,-81.7332,1.25,4.4,1111122 
NERRS,ioos:station:NOAA.NERRS:rkblhwq:1,2017-07-02T11:45:00Z,26.0257,-81.7332,1.36,4.1,1111122 
NERRS,ioos:station:NOAA.NERRS:rkblhwq:1,2017-07-02T12:45:00Z,26.0257,-81.7332,1.44,3.4,1111122 
NERRS,ioos:station:NOAA.NERRS:rkblhwq:1,2017-07-02T13:45:00Z,26.0257,-81.7332,1.44,1.0,1111122 
NERRS,ioos:station:NOAA.NERRS:rkblhwq:1,2017-07-02T14:45:00Z,26.0257,-81.7332,1.37,3.7,1111122 
NERRS,ioos:station:NOAA.NERRS:rkblhwq:1,2017-07-02T15:45:00Z,26.0257,-81.7332,1.26,4.1,1111122 
NERRS,ioos:station:NOAA.NERRS:rkblhwq:1,2017-07-02T16:45:00Z,26.0257,-81.7332,1.14,4.6,1111122 
NERRS,ioos:station:NOAA.NERRS:rkblhwq:1,2017-07-02T17:45:00Z,26.0257,-81.7332,1.03,5.1,1111122 
NERRS,ioos:station:NOAA.NERRS:rkblhwq:1,2017-07-02T18:45:00Z,26.0257,-81.7332,0.92,5.1,1111122 
NERRS,ioos:station:NOAA.NERRS:rkblhwq:1,2017-07-02T19:45:00Z,26.0257,-81.7332,0.83,4.8,1111122 
NERRS,ioos:station:NOAA.NERRS:rkblhwq:1,2017-07-02T20:45:00Z,26.0257,-81.7332,0.8,3.6,1111122 
NERRS,ioos:station:NOAA.NERRS:rkblhwq:1,2017-07-02T21:45:00Z,26.0257,-81.7332,0.87,5.0,1111122 
NERRS,ioos:station:NOAA.NERRS:rkblhwq:1,2017-07-02T22:45:00Z,26.0257,-81.7332,0.98,5.9,1111122 
NERRS,ioos:station:NOAA.NERRS:rkblhwq:1,2017-07-02T23:45:00Z,26.0257,-81.7332,1.09,5.3,1111122 
NERRS,ioos:station:NOAA.NERRS:rkblhwq:1,2017-07-03T00:45:00Z,26.0257,-81.7332,1.19,4.8,1111122 
NERRS,ioos:station:NOAA.NERRS:rkblhwq:1,2017-07-03T01:45:00Z,26.0257,-81.7332,1.27,4.6,1111122 
NERRS,ioos:station:NOAA.NERRS:rkblhwq:1,2017-07-03T02:45:00Z,26.0257,-81.7332,1.3,1.6,1111122 
NERRS,ioos:station:NOAA.NERRS:rkblhwq:1,2017-07-03T03:45:00Z,26.0257,-81.7332,1.26,4.2,1111122 
NERRS,ioos:station:NOAA.NERRS:rkblhwq:1,2017-07-03T04:45:00Z,26.0257,-81.7332,1.16,4.6,1111122 
NERRS,ioos:station:NOAA.NERRS:rkblhwq:1,2017-07-03T05:45:00Z,26.0257,-81.7332,1.07,4.4,1111122 
NERRS,ioos:station:NOAA.NERRS:rkblhwq:1,2017-07-03T06:45:00Z,26.0257,-81.7332,0.98,4.6,1111122 
NERRS,ioos:station:NOAA.NERRS:rkblhwq:1,2017-07-03T07:45:00Z,26.0257,-81.7332,0.92,4.0,1111122 
NERRS,ioos:station:NOAA.NERRS:rkblhwq:1,2017-07-03T08:45:00Z,26.0257,-81.7332,0.93,3.0,1111122 
NERRS,ioos:station:NOAA.NERRS:rkblhwq:1,2017-07-03T09:45:00Z,26.0257,-81.7332,1.03,3.7,1111122 
NERRS,ioos:station:NOAA.NERRS:rkblhwq:1,2017-07-03T10:45:00Z,26.0257,-81.7332,1.14,4.0,1111122 
NERRS,ioos:station:NOAA.NERRS:rkblhwq:1,2017-07-03T11:45:00Z,26.0257,-81.7332,1.27,3.6,1111122 
NERRS,ioos:station:NOAA.NERRS:rkblhwq:1,2017-07-03T12:45:00Z,26.0257,-81.7332,1.38,3.7,1111122 
NERRS,ioos:station:NOAA.NERRS:rkblhwq:1,2017-07-03T13:45:00Z,26.0257,-81.7332,1.46,3.1,1111122 
NERRS,ioos:station:NOAA.NERRS:rkblhwq:1,2017-07-03T14:45:00Z,26.0257,-81.7332,1.48,1.1,1111122 
NERRS,ioos:station:NOAA.NERRS:rkblhwq:1,2017-07-03T15:45:00Z,26.0257,-81.7332,1.41,3.5,1111122 
NERRS,ioos:station:NOAA.NERRS:rkblhwq:1,2017-07-03T16:45:00Z,26.0257,-81.7332,1.28,4.0,1111122 
NERRS,ioos:station:NOAA.NERRS:rkblhwq:1,2017-07-03T17:45:00Z,26.0257,-81.7332,1.14,4.2,1111122 
NERRS,ioos:station:NOAA.NERRS:rkblhwq:1,2017-07-03T18:45:00Z,26.0257,-81.7332,1.0,4.5,1111122 
NERRS,ioos:station:NOAA.NERRS:rkblhwq:1,2017-07-03T19:45:00Z,26.0257,-81.7332,0.88,5.6,1111122 
NERRS,ioos:station:NOAA.NERRS:rkblhwq:1,2017-07-03T20:45:00Z,26.0257,-81.7332,0.78,5.5,1111122 
NERRS,ioos:station:NOAA.NERRS:rkblhwq:1,2017-07-03T21:45:00Z,26.0257,-81.7332,0.75,3.1,1111122 
NERRS,ioos:station:NOAA.NERRS:rkblhwq:1,2017-07-03T22:45:00Z,26.0257,-81.7332,0.82,6.1,1111122 
NERRS,ioos:station:NOAA.NERRS:rkblhwq:1,2017-07-03T23:45:00Z,26.0257,-81.7332,0.93,6.3,1111122 
NERRS,ioos:station:NOAA.NERRS:rkblhwq:1,2017-07-04T00:45:00Z,26.0257,-81.7332,1.06,5.9,1111122 
NERRS,ioos:station:NOAA.NERRS:rkblhwq:1,2017-07-04T01:45:00Z,26.0257,-81.7332,1.17,5.6,1111122 
NERRS,ioos:station:NOAA.NERRS:rkblhwq:1,2017-07-04T02:45:00Z,26.0257,-81.7332,1.25,4.3,1111122 
NERRS,ioos:station:NOAA.NERRS:rkblhwq:1,2017-07-04T03:45:00Z,26.0257,-81.7332,1.27,2.3,1111122 
NERRS,ioos:station:NOAA.NERRS:rkblhwq:1,2017-07-04T04:45:00Z,26.0257,-81.7332,1.24,3.9,1111122 
NERRS,ioos:station:NOAA.NERRS:rkblhwq:1,2017-07-04T05:45:00Z,26.0257,-81.7332,1.18,3.8,1111122 
NERRS,ioos:station:NOAA.NERRS:rkblhwq:1,2017-07-04T06:45:00Z,26.0257,-81.7332,1.1,4.2,1111122 
NERRS,ioos:station:NOAA.NERRS:rkblhwq:1,2017-07-04T07:45:00Z,26.0257,-81.7332,1.01,3.9,1111122 
NERRS,ioos:station:NOAA.NERRS:rkblhwq:1,2017-07-04T08:45:00Z,26.0257,-81.7332,0.97,2.8,1111122 
NERRS,ioos:station:NOAA.NERRS:rkblhwq:1,2017-07-04T09:45:00Z,26.0257,-81.7332,1.02,3.5,1111122 
NERRS,ioos:station:NOAA.NERRS:rkblhwq:1,2017-07-04T10:45:00Z,26.0257,-81.7332,1.13,4.2,1111122 
NERRS,ioos:station:NOAA.NERRS:rkblhwq:1,2017-07-04T11:45:00Z,26.0257,-81.7332,1.25,4.3,1111122 
NERRS,ioos:station:NOAA.NERRS:rkblhwq:1,2017-07-04T12:45:00Z,26.0257,-81.7332,1.35,3.8,1111122 
NERRS,ioos:station:NOAA.NERRS:rkblhwq:1,2017-07-04T13:45:00Z,26.0257,-81.7332,1.43,3.8,1111122 
NERRS,ioos:station:NOAA.NERRS:rkblhwq:1,2017-07-04T14:45:00Z,26.0257,-81.7332,1.5,4.2,1111122 
NERRS,ioos:station:NOAA.NERRS:rkblhwq:1,2017-07-04T15:45:00Z,26.0257,-81.7332,1.5,2.2,1111122 
NERRS,ioos:station:NOAA.NERRS:rkblhwq:1,2017-07-04T16:45:00Z,26.0257,-81.7332,1.39,4.0,1111122 
NERRS,ioos:station:NOAA.NERRS:rkblhwq:1,2017-07-04T17:45:00Z,26.0257,-81.7332,1.25,4.4,1111122 
NERRS,ioos:station:NOAA.NERRS:rkblhwq:1,2017-07-04T18:45:00Z,26.0257,-81.7332,1.18,5.4,1111122 
NERRS,ioos:station:NOAA.NERRS:rkblhwq:1,2017-07-04T19:45:00Z,26.0257,-81.7332,1.01,5.2,1111122 
NERRS,ioos:station:NOAA.NERRS:rkblhwq:1,2017-07-04T20:45:00Z,26.0257,-81.7332,0.86,4.7,1111122 
NERRS,ioos:station:NOAA.NERRS:rkblhwq:1,2017-07-04T21:45:00Z,26.0257,-81.7332,0.74,4.3,1111122 
NERRS,ioos:station:NOAA.NERRS:rkblhwq:1,2017-07-04T22:45:00Z,26.0257,-81.7332,0.68,4.4,1111122 
NERRS,ioos:station:NOAA.NERRS:rkblhwq:1,2017-07-04T23:45:00Z,26.0257,-81.7332,0.75,4.5,1111122 
NERRS,ioos:station:NOAA.NERRS:rkblhwq:1,2017-07-05T00:45:00Z,26.0257,-81.7332,0.89,5.2,1111122 
NERRS,ioos:station:NOAA.NERRS:rkblhwq:1,2017-07-05T01:45:00Z,26.0257,-81.7332,1.02,5.0,1111122 
NERRS,ioos:station:NOAA.NERRS:rkblhwq:1,2017-07-05T02:45:00Z,26.0257,-81.7332,1.16,4.9,1111122 
NERRS,ioos:station:NOAA.NERRS:rkblhwq:1,2017-07-05T03:15:00Z,26.0257,-81.7332,1.22,4.6,1111122 
NERRS,ioos:station:NOAA.NERRS:rkblhwq:1,2017-07-05T04:45:00Z,26.0257,-81.7332,1.32,2.1,1111122 
NERRS,ioos:station:NOAA.NERRS:rkblhwq:1,2017-07-05T05:45:00Z,26.0257,-81.7332,1.28,3.7,1111122 
NERRS,ioos:station:NOAA.NERRS:rkblhwq:1,2017-07-05T06:45:00Z,26.0257,-81.7332,1.18,3.8,1111122 
NERRS,ioos:station:NOAA.NERRS:rkblhwq:1,2017-07-05T07:45:00Z,26.0257,-81.7332,1.08,4.1,1111122 
NERRS,ioos:station:NOAA.NERRS:rkblhwq:1,2017-07-05T08:45:00Z,26.0257,-81.7332,1.02,3.1,1111122 
NERRS,ioos:station:NOAA.NERRS:rkblhwq:1,2017-07-05T09:45:00Z,26.0257,-81.7332,1.02,0.9,1111122 
NERRS,ioos:station:NOAA.NERRS:rkblhwq:1,2017-07-05T10:45:00Z,26.0257,-81.7332,1.07,3.0,1111122 
NERRS,ioos:station:NOAA.NERRS:rkblhwq:1,2017-07-05T11:45:00Z,26.0257,-81.7332,1.17,3.7,1111122 
NERRS,ioos:station:NOAA.NERRS:rkblhwq:1,2017-07-05T12:45:00Z,26.0257,-81.7332,4.06,4.0,1111122 
NERRS,ioos:station:NOAA.NERRS:rkblhwq:1,2017-07-05T13:45:00Z,26.0257,-81.7332,4.4,3.9,1111122 
NERRS,ioos:station:NOAA.NERRS:rkblhwq:1,2017-07-05T14:45:00Z,26.0257,-81.7332,4.69,3.8,1111122 
NERRS,ioos:station:NOAA.NERRS:rkblhwq:1,2017-07-05T15:45:00Z,26.0257,-81.7332,4.85,3.9,1111122 
NERRS,ioos:station:NOAA.NERRS:rkblhwq:1,2017-07-05T16:45:00Z,26.0257,-81.7332,4.68,3.5,1111122 
NERRS,ioos:station:NOAA.NERRS:rkblhwq:1,2017-07-05T17:45:00Z,26.0257,-81.7332,4.29,3.8,1111122 
NERRS,ioos:station:NOAA.NERRS:rkblhwq:1,2017-07-05T18:45:00Z,26.0257,-81.7332,3.88,4.1,1111122 
NERRS,ioos:station:NOAA.NERRS:rkblhwq:1,2017-07-05T19:45:00Z,26.0257,-81.7332,3.38,3.6,1111122 
NERRS,ioos:station:NOAA.NERRS:rkblhwq:1,2017-07-05T20:45:00Z,26.0257,-81.7332,2.9,3.8,1111122 
NERRS,ioos:station:NOAA.NERRS:rkblhwq:1,2017-07-05T21:45:00Z,26.0257,-81.7332,2.48,3.9,1111122 
NERRS,ioos:station:NOAA.NERRS:rkblhwq:1,2017-07-05T22:45:00Z,26.0257,-81.7332,2.15,4.1,1111122 
NERRS,ioos:station:NOAA.NERRS:rkblhwq:1,2017-07-05T23:45:00Z,26.0257,-81.7332,2.17,4.9,1111122 
NERRS,ioos:station:NOAA.NERRS:rkblhwq:1,2017-07-06T00:45:00Z,26.0257,-81.7332,2.54,5.2,1111122 
NERRS,ioos:station:NOAA.NERRS:rkblhwq:1,2017-07-06T01:45:00Z,26.0257,-81.7332,2.97,5.2,1111122 
NERRS,ioos:station:NOAA.NERRS:rkblhwq:1,2017-07-06T02:45:00Z,26.0257,-81.7332,3.42,5.2,1111122 
NERRS,ioos:station:NOAA.NERRS:rkblhwq:1,2017-07-06T03:45:00Z,26.0257,-81.7332,3.86,5.1,1111122 
NERRS,ioos:station:NOAA.NERRS:rkblhwq:1,2017-07-06T04:45:00Z,26.0257,-81.7332,4.24,5.0,1111122 
NERRS,ioos:station:NOAA.NERRS:rkblhwq:1,2017-07-06T05:45:00Z,26.0257,-81.7332,4.34,4.0,1111122 
NERRS,ioos:station:NOAA.NERRS:rkblhwq:1,2017-07-06T06:45:00Z,26.0257,-81.7332,4.04,4.7,1111122 
NERRS,ioos:station:NOAA.NERRS:rkblhwq:1,2017-07-06T07:45:00Z,26.0257,-81.7332,3.68,4.7,1111122 
NERRS,ioos:station:NOAA.NERRS:rkblhwq:1,2017-07-06T08:45:00Z,26.0257,-81.7332,3.35,4.4,1111122 
NERRS,ioos:station:NOAA.NERRS:rkblhwq:1,2017-07-06T09:45:00Z,26.0257,-81.7332,3.07,3.9,1111122 
NERRS,ioos:station:NOAA.NERRS:rkblhwq:1,2017-07-06T10:45:00Z,26.0257,-81.7332,2.94,3.0,1111122 
NERRS,ioos:station:NOAA.NERRS:rkblhwq:1,2017-07-06T11:45:00Z,26.0257,-81.7332,3.22,3.8,1111122 
NERRS,ioos:station:NOAA.NERRS:rkblhwq:1,2017-07-06T12:45:00Z,26.0257,-81.7332,3.7,4.3,1111122 
NERRS,ioos:station:NOAA.NERRS:rkblhwq:1,2017-07-06T13:45:00Z,26.0257,-81.7332,4.18,4.3,1111122 
NERRS,ioos:station:NOAA.NERRS:rkblhwq:1,2017-07-06T14:45:00Z,26.0257,-81.7332,4.6,4.3,1111122 
NERRS,ioos:station:NOAA.NERRS:rkblhwq:1,2017-07-06T15:45:00Z,26.0257,-81.7332,4.86,4.3,1111122 
NERRS,ioos:station:NOAA.NERRS:rkblhwq:1,2017-07-06T16:45:00Z,26.0257,-81.7332,4.91,4.0,1111122 
NERRS,ioos:station:NOAA.NERRS:rkblhwq:1,2017-07-06T17:45:00Z,26.0257,-81.7332,4.61,4.3,1111122 
NERRS,ioos:station:NOAA.NERRS:rkblhwq:1,2017-07-06T18:45:00Z,26.0257,-81.7332,4.17,4.4,1111122 
NERRS,ioos:station:NOAA.NERRS:rkblhwq:1,2017-07-06T19:45:00Z,26.0257,-81.7332,3.73,5.0,1111122 
NERRS,ioos:station:NOAA.NERRS:rkblhwq:1,2017-07-06T20:45:00Z,26.0257,-81.7332,3.28,4.4,1111122 
NERRS,ioos:station:NOAA.NERRS:rkblhwq:1,2017-07-06T21:45:00Z,26.0257,-81.7332,2.71,4.3,1111122 
NERRS,ioos:station:NOAA.NERRS:rkblhwq:1,2017-07-06T22:45:00Z,26.0257,-81.7332,2.26,4.6,1111122 
NERRS,ioos:station:NOAA.NERRS:rkblhwq:1,2017-07-06T23:45:00Z,26.0257,-81.7332,1.96,4.4,1111122 
NERRS,ioos:station:NOAA.NERRS:rkblhwq:1,2017-07-07T00:45:00Z,26.0257,-81.7332,2.01,4.5,1111122 
NERRS,ioos:station:NOAA.NERRS:rkblhwq:1,2017-07-07T01:45:00Z,26.0257,-81.7332,2.47,4.7,1111122 
NERRS,ioos:station:NOAA.NERRS:rkblhwq:1,2017-07-07T02:45:00Z,26.0257,-81.7332,2.91,4.7,1111122 
NERRS,ioos:station:NOAA.NERRS:rkblhwq:1,2017-07-07T03:45:00Z,26.0257,-81.7332,3.4,4.8,1111122 
NERRS,ioos:station:NOAA.NERRS:rkblhwq:1,2017-07-07T04:45:00Z,26.0257,-81.7332,3.84,4.8,1111122 
NERRS,ioos:station:NOAA.NERRS:rkblhwq:1,2017-07-07T05:45:00Z,26.0257,-81.7332,4.11,4.3,1111122 
NERRS,ioos:station:NOAA.NERRS:rkblhwq:1,2017-07-07T06:45:00Z,26.0257,-81.7332,4.08,4.4,1111122 
NERRS,ioos:station:NOAA.NERRS:rkblhwq:1,2017-07-07T07:45:00Z,26.0257,-81.7332,3.88,4.1,1111122 
NERRS,ioos:station:NOAA.NERRS:rkblhwq:1,2017-07-07T08:45:00Z,26.0257,-81.7332,3.59,4.3,1111122 
NERRS,ioos:station:NOAA.NERRS:rkblhwq:1,2017-07-07T09:45:00Z,26.0257,-81.7332,3.34,3.9,1111122 
NERRS,ioos:station:NOAA.NERRS:rkblhwq:1,2017-07-07T10:45:00Z,26.0257,-81.7332,3.25,3.4,1111122 
NERRS,ioos:station:NOAA.NERRS:rkblhwq:1,2017-07-07T11:45:00Z,26.0257,-81.7332,3.3,3.2,1111122 
NERRS,ioos:station:NOAA.NERRS:rkblhwq:1,2017-07-07T12:45:00Z,26.0257,-81.7332,3.62,4.0,1111122 
NERRS,ioos:station:NOAA.NERRS:rkblhwq:1,2017-07-07T13:45:00Z,26.0257,-81.7332,4.02,4.1,1111122 
NERRS,ioos:station:NOAA.NERRS:rkblhwq:1,2017-07-07T14:45:00Z,26.0257,-81.7332,4.41,4.1,1111122 
NERRS,ioos:station:NOAA.NERRS:rkblhwq:1,2017-07-07T15:45:00Z,26.0257,-81.7332,4.76,4.3,1111122 
NERRS,ioos:station:NOAA.NERRS:rkblhwq:1,2017-07-07T17:45:00Z,26.0257,-81.7332,4.9,4.1,1111122 
NERRS,ioos:station:NOAA.NERRS:rkblhwq:1,2017-07-07T18:45:00Z,26.0257,-81.7332,4.56,4.0,1111122 
NERRS,ioos:station:NOAA.NERRS:rkblhwq:1,2017-07-07T19:45:00Z,26.0257,-81.7332,4.06,3.9,1111122 
NERRS,ioos:station:NOAA.NERRS:rkblhwq:1,2017-07-07T20:45:00Z,26.0257,-81.7332,3.52,3.9,1111122 
NERRS,ioos:station:NOAA.NERRS:rkblhwq:1,2017-07-07T21:45:00Z,26.0257,-81.7332,2.95,3.9,1111122 
NERRS,ioos:station:NOAA.NERRS:rkblhwq:1,2017-07-07T22:45:00Z,26.0257,-81.7332,2.48,4.1,1111122 
NERRS,ioos:station:NOAA.NERRS:rkblhwq:1,2017-07-07T23:45:00Z,26.0257,-81.7332,2.1,4.8,1111122 
NERRS,ioos:station:NOAA.NERRS:rkblhwq:1,2017-07-08T00:45:00Z,26.0257,-81.7332,1.9,4.1,1111122 
NERRS,ioos:station:NOAA.NERRS:rkblhwq:1,2017-07-08T01:45:00Z,26.0257,-81.7332,2.23,4.7,1111122 
NERRS,ioos:station:NOAA.NERRS:rkblhwq:1,2017-07-08T02:45:00Z,26.0257,-81.7332,2.69,4.6,1111122 
NERRS,ioos:station:NOAA.NERRS:rkblhwq:1,2017-07-08T03:45:00Z,26.0257,-81.7332,3.2,4.8,1111122 
NERRS,ioos:station:NOAA.NERRS:rkblhwq:1,2017-07-08T04:45:00Z,26.0257,-81.7332,3.73,4.9,1111122 
NERRS,ioos:station:NOAA.NERRS:rkblhwq:1,2017-07-08T05:45:00Z,26.0257,-81.7332,4.21,5.1,1111122 
NERRS,ioos:station:NOAA.NERRS:rkblhwq:1,2017-07-08T06:45:00Z,26.0257,-81.7332,4.42,4.7,1111122 
NERRS,ioos:station:NOAA.NERRS:rkblhwq:1,2017-07-08T07:45:00Z,26.0257,-81.7332,4.22,4.8,1111122 
NERRS,ioos:station:NOAA.NERRS:rkblhwq:1,2017-07-08T08:45:00Z,26.0257,-81.7332,3.87,4.5,1111122 
NERRS,ioos:station:NOAA.NERRS:rkblhwq:1,2017-07-08T09:45:00Z,26.0257,-81.7332,3.52,4.6,1111122 
NERRS,ioos:station:NOAA.NERRS:rkblhwq:1,2017-07-08T10:45:00Z,26.0257,-81.7332,3.26,3.8,1111122 
NERRS,ioos:station:NOAA.NERRS:rkblhwq:1,2017-07-08T11:45:00Z,26.0257,-81.7332,3.19,3.5,1111122 
NERRS,ioos:station:NOAA.NERRS:rkblhwq:1,2017-07-08T12:45:00Z,26.0257,-81.7332,3.38,3.4,1111122 
NERRS,ioos:station:NOAA.NERRS:rkblhwq:1,2017-07-08T13:45:00Z,26.0257,-81.7332,3.8,4.8,1111122 
NERRS,ioos:station:NOAA.NERRS:rkblhwq:1,2017-07-08T14:45:00Z,26.0257,-81.7332,4.26,4.5,1111122 
NERRS,ioos:station:NOAA.NERRS:rkblhwq:1,2017-07-08T15:45:00Z,26.0257,-81.7332,4.64,4.9,1111122 
NERRS,ioos:station:NOAA.NERRS:rkblhwq:1,2017-07-08T16:45:00Z,26.0257,-81.7332,4.93,5.7,1111122 
NERRS,ioos:station:NOAA.NERRS:rkblhwq:1,2017-07-08T17:45:00Z,26.0257,-81.7332,5.01,4.6,1111122 
NERRS,ioos:station:NOAA.NERRS:rkblhwq:1,2017-07-08T18:45:00Z,26.0257,-81.7332,4.75,5.6,1111122 
NERRS,ioos:station:NOAA.NERRS:rkblhwq:1,2017-07-08T19:45:00Z,26.0257,-81.7332,4.37,5.9,1111122 
NERRS,ioos:station:NOAA.NERRS:rkblhwq:1,2017-07-08T20:45:00Z,26.0257,-81.7332,3.78,5.8,1111122 
NERRS,ioos:station:NOAA.NERRS:rkblhwq:1,2017-07-08T21:45:00Z,26.0257,-81.7332,3.23,5.7,1111122 
NERRS,ioos:station:NOAA.NERRS:rkblhwq:1,2017-07-08T23:45:00Z,26.0257,-81.7332,2.27,5.0,1111122 
NERRS,ioos:station:NOAA.NERRS:rkblhwq:1,2017-07-09T00:45:00Z,26.0257,-81.7332,1.9,5.1,1111122 
NERRS,ioos:station:NOAA.NERRS:rkblhwq:1,2017-07-09T01:45:00Z,26.0257,-81.7332,1.93,4.7,1111122 
NERRS,ioos:station:NOAA.NERRS:rkblhwq:1,2017-07-09T02:45:00Z,26.0257,-81.7332,2.38,5.0,1111122 
NERRS,ioos:station:NOAA.NERRS:rkblhwq:1,2017-07-09T03:45:00Z,26.0257,-81.7332,2.83,5.0,1111122 
NERRS,ioos:station:NOAA.NERRS:rkblhwq:1,2017-07-09T04:45:00Z,26.0257,-81.7332,3.32,5.1,1111122 
NERRS,ioos:station:NOAA.NERRS:rkblhwq:1,2017-07-09T05:45:00Z,26.0257,-81.7332,3.83,5.1,1111122 
NERRS,ioos:station:NOAA.NERRS:rkblhwq:1,2017-07-09T06:45:00Z,26.0257,-81.7332,4.18,4.9,1111122 
NERRS,ioos:station:NOAA.NERRS:rkblhwq:1,2017-07-09T07:45:00Z,26.0257,-81.7332,4.28,3.2,1111122 
NERRS,ioos:station:NOAA.NERRS:rkblhwq:1,2017-07-09T08:45:00Z,26.0257,-81.7332,4.03,4.5,1111122 
NERRS,ioos:station:NOAA.NERRS:rkblhwq:1,2017-07-09T09:45:00Z,26.0257,-81.7332,3.68,4.6,1111122 
NERRS,ioos:station:NOAA.NERRS:rkblhwq:1,2017-07-09T10:45:00Z,26.0257,-81.7332,3.38,4.5,1111122 
NERRS,ioos:station:NOAA.NERRS:rkblhwq:1,2017-07-09T11:45:00Z,26.0257,-81.7332,3.17,4.2,1111122 
NERRS,ioos:station:NOAA.NERRS:rkblhwq:1,2017-07-09T12:45:00Z,26.0257,-81.7332,3.19,3.5,1111122 
NERRS,ioos:station:NOAA.NERRS:rkblhwq:1,2017-07-09T13:45:00Z,26.0257,-81.7332,3.47,4.3,1111122 
NERRS,ioos:station:NOAA.NERRS:rkblhwq:1,2017-07-09T14:45:00Z,26.0257,-81.7332,3.92,4.7,1111122 
NERRS,ioos:station:NOAA.NERRS:rkblhwq:1,2017-07-09T15:45:00Z,26.0257,-81.7332,4.37,4.7,1111122 
NERRS,ioos:station:NOAA.NERRS:rkblhwq:1,2017-07-09T17:45:00Z,26.0257,-81.7332,5.0,4.8,1111122 
NERRS,ioos:station:NOAA.NERRS:rkblhwq:1,2017-07-09T18:45:00Z,26.0257,-81.7332,4.93,5.1,1111122 
NERRS,ioos:station:NOAA.NERRS:rkblhwq:1,2017-07-09T19:45:00Z,26.0257,-81.7332,4.54,4.5,1111122 
NERRS,ioos:station:NOAA.NERRS:rkblhwq:1,2017-07-09T20:45:00Z,26.0257,-81.7332,4.07,4.0,1111122 
NERRS,ioos:station:NOAA.NERRS:rkblhwq:1,2017-07-09T21:45:00Z,26.0257,-81.7332,3.5,3.9,1111122 
NERRS,ioos:station:NOAA.NERRS:rkblhwq:1,2017-07-09T22:45:00Z,26.0257,-81.7332,2.97,4.0,1111122 
NERRS,ioos:station:NOAA.NERRS:rkblhwq:1,2017-07-09T23:45:00Z,26.0257,-81.7332,2.49,3.8,1111122 
NERRS,ioos:station:NOAA.NERRS:rkblhwq:1,2017-07-10T00:45:00Z,26.0257,-81.7332,2.08,3.9,1111122 
NERRS,ioos:station:NOAA.NERRS:rkblhwq:1,2017-07-10T01:45:00Z,26.0257,-81.7332,1.84,3.1,1111122 
NERRS,ioos:station:NOAA.NERRS:rkblhwq:1,2017-07-10T02:45:00Z,26.0257,-81.7332,2.12,3.3,1111122 
NERRS,ioos:station:NOAA.NERRS:rkblhwq:1,2017-07-10T03:45:00Z,26.0257,-81.7332,2.56,3.8,1111122 
NERRS,ioos:station:NOAA.NERRS:rkblhwq:1,2017-07-10T04:45:00Z,26.0257,-81.7332,3.06,4.0,1111122 
NERRS,ioos:station:NOAA.NERRS:rkblhwq:1,2017-07-10T05:45:00Z,26.0257,-81.7332,3.57,4.1,1111122 
NERRS,ioos:station:NOAA.NERRS:rkblhwq:1,2017-07-10T06:45:00Z,26.0257,-81.7332,4.05,4.1,1111122 
NERRS,ioos:station:NOAA.NERRS:rkblhwq:1,2017-07-10T07:45:00Z,26.0257,-81.7332,4.31,3.7,1111122 
NERRS,ioos:station:NOAA.NERRS:rkblhwq:1,2017-07-10T08:45:00Z,26.0257,-81.7332,4.21,3.5,1111122 
NERRS,ioos:station:NOAA.NERRS:rkblhwq:1,2017-07-10T09:45:00Z,26.0257,-81.7332,3.9,3.6,1111122 
NERRS,ioos:station:NOAA.NERRS:rkblhwq:1,2017-07-10T10:45:00Z,26.0257,-81.7332,3.61,3.5,1111122 
NERRS,ioos:station:NOAA.NERRS:rkblhwq:1,2017-07-10T11:45:00Z,26.0257,-81.7332,3.31,3.6,1111122 
NERRS,ioos:station:NOAA.NERRS:rkblhwq:1,2017-07-10T12:45:00Z,26.0257,-81.7332,3.07,3.0,1111122 
NERRS,ioos:station:NOAA.NERRS:rkblhwq:1,2017-07-10T13:45:00Z,26.0257,-81.7332,3.2,2.4,1111122 
NERRS,ioos:station:NOAA.NERRS:rkblhwq:1,2017-07-10T14:45:00Z,26.0257,-81.7332,3.59,4.2,1111122 
NERRS,ioos:station:NOAA.NERRS:rkblhwq:1,2017-07-10T15:45:00Z,26.0257,-81.7332,4.11,4.2,1111122 
NERRS,ioos:station:NOAA.NERRS:rkblhwq:1,2017-07-10T16:45:00Z,26.0257,-81.7332,4.54,4.4,1111122 
NERRS,ioos:station:NOAA.NERRS:rkblhwq:1,2017-07-10T17:45:00Z,26.0257,-81.7332,4.92,4.6,1111122 
NERRS,ioos:station:NOAA.NERRS:rkblhwq:1,2017-07-10T18:45:00Z,26.0257,-81.7332,5.03,3.9,1111122 
NERRS,ioos:station:NOAA.NERRS:rkblhwq:1,2017-07-10T19:45:00Z,26.0257,-81.7332,4.78,3.9,1111122 
NERRS,ioos:station:NOAA.NERRS:rkblhwq:1,2017-07-10T20:45:00Z,26.0257,-81.7332,4.44,3.7,1111122 
NERRS,ioos:station:NOAA.NERRS:rkblhwq:1,2017-07-10T21:45:00Z,26.0257,-81.7332,3.9,4.0,1111122 
NERRS,ioos:station:NOAA.NERRS:rkblhwq:1,2017-07-10T22:45:00Z,26.0257,-81.7332,3.34,3.2,1111122 
NERRS,ioos:station:NOAA.NERRS:rkblhwq:1,2017-07-10T23:45:00Z,26.0257,-81.7332,2.84,3.3,1111122 
NERRS,ioos:station:NOAA.NERRS:rkblhwq:1,2017-07-11T00:45:00Z,26.0257,-81.7332,2.39,3.1,1111122 
NERRS,ioos:station:NOAA.NERRS:rkblhwq:1,2017-07-11T01:45:00Z,26.0257,-81.7332,2.04,2.8,1111122 
NERRS,ioos:station:NOAA.NERRS:rkblhwq:1,2017-07-11T02:45:00Z,26.0257,-81.7332,2.0,2.9,1111122 
NERRS,ioos:station:NOAA.NERRS:rkblhwq:1,2017-07-11T03:45:00Z,26.0257,-81.7332,2.36,2.9,1111122 
NERRS,ioos:station:NOAA.NERRS:rkblhwq:1,2017-07-11T04:45:00Z,26.0257,-81.7332,2.82,3.2,1111122 
NERRS,ioos:station:NOAA.NERRS:rkblhwq:1,2017-07-11T05:45:00Z,26.0257,-81.7332,3.34,3.7,1111122 
NERRS,ioos:station:NOAA.NERRS:rkblhwq:1,2017-07-11T06:45:00Z,26.0257,-81.7332,3.82,3.8,1111122 
NERRS,ioos:station:NOAA.NERRS:rkblhwq:1,2017-07-11T07:45:00Z,26.0257,-81.7332,4.18,3.8,1111122 
NERRS,ioos:station:NOAA.NERRS:rkblhwq:1,2017-07-11T08:45:00Z,26.0257,-81.7332,4.28,2.4,1111122 
NERRS,ioos:station:NOAA.NERRS:rkblhwq:1,2017-07-11T09:45:00Z,26.0257,-81.7332,3.99,3.4,1111122 
NERRS,ioos:station:NOAA.NERRS:rkblhwq:1,2017-07-11T10:45:00Z,26.0257,-81.7332,3.63,3.5,1111122 
NERRS,ioos:station:NOAA.NERRS:rkblhwq:1,2017-07-11T11:45:00Z,26.0257,-81.7332,3.26,3.3,1111122 